Location: Unspecified
(44.0704°N, 88.6889°W)
Time: 18:13:11
(UTC+02:00)

Transit 2A - Pass Details

Date: 17 June 2019
Orbit: 594 x 964 km, 66.7° (Epoch: 19 July)

Event Time Altitude Azimuth Distance (km) Brightness Sun altitude
Rises 19:00:05 0° 321° (NW) 3,435 9.1 66.4°
Reaches altitude 10° 19:02:52 10° 312° (NW) 2,433 8.5 66.6°
Maximum altitude 19:07:46 33° 250° (WSW) 1,286 7.6 67.1°
Drops below altitude 10° 19:12:13 10° 188° (S) 2,196 8.8 67.5°
Sets 19:14:38 0° 178° (S) 3,052 9.4 67.7°
